Flag for Germany Weather past 2 weeks in Regensburg, Bavaria, Germany

Now
90 °F

Sunny.


Feels Like: 90 °F
Forecast: 63 / 73 °F
Wind: 3 mph from Southwest

Location: Regensburg

Current Time: Jul 7, 2015 at 8:22:24 PM

Latest Report: Jul 7, 2015 at 8:00 PM


Visibility: 17 mi

Pressure: 29.70 "Hg

Humidity: 36%

Dew point: 60 °F

Location of RegensburgLocation

Historic Weather in Regensburg — Graph

°F

Regensburg temperature yesterday

Maximum temperature yesterday: 88 °F (at 4:00 PM)
Minimum temperature yesterday: 70 °F (at 11:00 PM)
Average temperature yesterday: 79 °F

Past Weeks' High & Low Weather Summary

 TemperatureHumidityPressure
High96 °F (Jul 7, 5:00 PM)99% (Jun 23, 2:00 AM)30.27 "Hg (Jun 23, 2:00 AM)
Low45 °F (Jun 25, 5:00 AM)27% (Jul 5, 5:00 PM)29.70 "Hg (Jul 7, 7:00 PM)
Average70 °F66%30.09 "Hg
* Reported Jun 22 7:00 PM — Jul 7 7:00 PM, Regensburg, Weather by CustomWeather, © 2015

Note: Actual official high and low records may vary slightly from our data, if they occured in-between our weather recording intervals... More about our weather records

Advertising

Regensburg weather history for previous 24 hours

 ConditionsComfort  
Time TempWeatherWind HumidityBarometerVisibility
7:00 PM
Tue, Jul 7
94 °FSunny.3 mph30%29.70 "Hg14 mi
6:00 PM93 °FPartly sunny.3 mph34%29.73 "Hg19 mi
5:00 PM96 °FPassing clouds.5 mph28%29.75 "Hg15 mi
4:00 PM94 °FPassing clouds.3 mph39%29.78 "Hg12 mi
3:00 PM93 °FSunny.3 mph39%29.80 "Hg12 mi
2:00 PM90 °FSunny.3 mph45%29.83 "Hg10 mi
1:00 PM88 °FScattered clouds.3 mph51%29.87 "Hg9 mi
12:00 PM85 °FSunny.5 mph56%29.90 "Hg7 mi
11:00 AM83 °FSunny.3 mph56%29.91 "Hg8 mi
10:00 AM78 °FSunny.3 mph62%29.95 "Hg7 mi
9:00 AM74 °FSunny.2 mph64%29.98 "Hg11 mi
8:00 AM67 °FSunny.1 mph74%30.01 "Hg18 mi
7:00 AM62 °FSunny.1 mph79%30.03 "Hg19 mi
5:00 AM60 °FClear.1 mph84%30.04 "Hg18 mi
4:00 AM61 °FClear.2 mph82%30.05 "Hg19 mi
3:00 AM62 °FPassing clouds.N/A81%30.06 "Hg22 mi
2:00 AM63 °FClear.2 mph78%30.06 "Hg22 mi
1:00 AM65 °FClear.N/A74%30.07 "Hg25 mi
12:00 AM67 °FClear.2 mph70%30.08 "Hg28 mi
11:00 PM
Mon, Jul 6
70 °FClear.2 mph61%30.07 "Hg34 mi
10:00 PM74 °FClear.1 mph48%30.06 "Hg43 mi
9:00 PM79 °FSunny.1 mph41%30.04 "Hg43 mi
8:00 PM83 °FSunny.2 mph40%30.03 "Hg34 mi
Weather by CustomWeather, © 2015

See weather overviewHow to use our weather pages